TimeCDT,TemperatureF,Dew PointF,Humidity,Sea Level PressureIn,VisibilityMPH,Wind Direction,Wind SpeedMPH,Gust SpeedMPH,PrecipitationIn,Events,Conditions,WindDirDegrees,DateUTC
12:57 AM,37.9,36.0,93,30.31,10.0,Calm,Calm,-,N/A,,Scattered Clouds,0,2012-10-07 05:57:00
1:57 AM,37.0,36.0,96,30.32,10.0,Calm,Calm,-,N/A,,Overcast,0,2012-10-07 06:57:00
2:57 AM,37.9,37.0,97,30.33,10.0,NNW,4.6,-,N/A,,Overcast,330,2012-10-07 07:57:00
3:57 AM,39.0,35.1,86,30.32,10.0,North,3.5,-,N/A,,Overcast,350,2012-10-07 08:57:00
4:57 AM,37.9,34.0,86,30.32,10.0,Calm,Calm,-,N/A,,Mostly Cloudy,0,2012-10-07 09:57:00
5:57 AM,35.1,33.1,92,30.30,10.0,NNE,3.5,-,N/A,,Clear,30,2012-10-07 10:57:00
6:57 AM,33.1,32.0,96,30.32,9.0,Calm,Calm,-,N/A,,Clear,0,2012-10-07 11:57:00
7:57 AM,34.0,32.0,92,30.33,8.0,Calm,Calm,-,N/A,,Clear,0,2012-10-07 12:57:00
8:57 AM,37.9,36.0,93,30.33,10.0,North,3.5,-,N/A,,Clear,360,2012-10-07 13:57:00
9:57 AM,44.1,32.0,63,30.33,10.0,North,6.9,-,N/A,,Clear,350,2012-10-07 14:57:00
10:57 AM,46.9,32.0,56,30.33,10.0,North,6.9,-,N/A,,Clear,10,2012-10-07 15:57:00
11:57 AM,48.0,30.0,50,30.31,10.0,West,4.6,-,N/A,,Clear,270,2012-10-07 16:57:00
12:57 PM,50.0,28.9,44,30.30,10.0,Calm,Calm,-,N/A,,Clear,0,2012-10-07 17:57:00
1:57 PM,51.1,30.9,46,30.27,10.0,NNW,5.8,-,N/A,,Clear,330,2012-10-07 18:57:00
2:57 PM,50.0,28.9,44,30.25,10.0,West,4.6,-,N/A,,Clear,260,2012-10-07 19:57:00
3:57 PM,50.0,30.9,48,30.23,10.0,NNW,4.6,-,N/A,,Clear,340,2012-10-07 20:57:00
4:57 PM,51.1,30.9,46,30.22,10.0,North,3.5,-,N/A,,Clear,350,2012-10-07 21:57:00
5:57 PM,48.9,34.0,56,30.22,10.0,WNW,3.5,-,N/A,,Partly Cloudy,290,2012-10-07 22:57:00
6:57 PM,48.0,36.0,63,30.23,10.0,Calm,Calm,-,N/A,,Overcast,0,2012-10-07 23:57:00
7:57 PM,46.9,33.1,59,30.22,10.0,Calm,Calm,-,N/A,,Overcast,0,2012-10-08 00:57:00
8:57 PM,46.0,36.0,68,30.24,10.0,Calm,Calm,-,N/A,,Scattered Clouds,0,2012-10-08 01:57:00
9:57 PM,45.0,37.9,76,30.24,10.0,West,4.6,-,N/A,,Partly Cloudy,260,2012-10-08 02:57:00
10:57 PM,45.0,36.0,71,30.25,10.0,SW,5.8,-,N/A,,Mostly Cloudy,220,2012-10-08 03:57:00
11:57 PM,42.1,36.0,79,30.24,10.0,SW,5.8,-,N/A,,Mostly Cloudy,230,2012-10-08 04:57:00